Weather WX

World > North America > United States > Minnesota

Trosky, Minnesota Regional Weather

Lat: 43.89N, Lon: 96.26W
Wx Zone: MNZ097
Warning FLW WEATHER ALERT - (More Info. Click Here) Warning
Feedback

Trosky, MN Regional Weather

Expires:201906241800;;009881
ASUS43 KMPX 241710
RWRMN 
WEATHER ROUNDUP FOR MINNESOTA
NATIONAL WEATHER SERVICE TWIN CITIES/CHANHASSEN MN
1200 PM CDT MON JUN 24 2019


NOTE: "FAIR" INDICATES FEW OR NO CLOUDS BELOW 12,000 FEET WITH NO
SIGNIFICANT WEATHER AND/OR OBSTRUCTIONS TO VISIBILITY. N/A MEANS
CURRENT SKY AND/OR WEATHER CONDITIONS ARE NOT AVAILABLE.


MNZ071>073-080-081-089-090-097-098-241800-
   Southwest Minnesota   
  
CITY           SKY/WX    TMP DP  RH WIND       PRES   REMARKS
MONTEVIDEO     SUNNY     66  54  63 NW3       29.68S                  
GRANITE FALLS  DRIZZLE   67  59  75 W5        29.70S                  
CANBY          PTSUNNY   70  59  66 SW5       29.70S                  
MARSHALL       CLOUDY    66  55  67 N7        29.70R                  
REDWOOD FALLS  CLOUDY    67  56  67 W12       29.67S                  
OLIVIA         CLOUDY    68  55  64 W12       29.67S                  
PIPESTONE      SUNNY     66  57  72 CALM      29.72R                  
WINDOM         SUNNY     70  57  64 W8        29.70S                  
WORTHINGTON    CLOUDY    67  58  72 W8        29.73R                  
JACKSON        MOSUNNY   68  54  60 SW6       29.71S                  
TRACY          CLOUDY    68  59  73 NW7       29.70R                  
$$

SKY/WX - Weather  TMP - Temperature  DP - Dew Point  RH - Relative Humidity
WIND - Wind Direction/Speed PRES - Barometric Pressure VSB - Visibility
WCI - Wind Chill Index E13G22 Wind - East Wind 13 mph/Gusts of 22 mph